sat.trackr.live / text

‹ back to catalog

SIRION PATHFINDER-2

NORAD 43759 · 2018-099B

PAYLOAD ACTIVE UNKNOWN

§ Identity

Operator
Country
US
Launch date
2018-12-03
Launch site
AFWTR
Launch vehicle
Mass (kg)
RCS (m²)

Purposes: tech_demo

External: N2YO · Heavens-Above · Gunter

§ Orbital elements

Epoch: 2026-05-25T02:56:02.506272Z

Period
95.09 min
Inclination
97.4269°
Eccentricity
0.0009340
Mean motion
15.14302868 rev/d
Perigee alt
516.7 km
Apogee alt
529.5 km
Semi-major
6,901.2 km
B*
2.2294e-4
RAAN
194.7299°
Arg perigee
30.7530°
Mean anomaly
329.4248°
Rev number
40,913

§ Raw data

SIRION PATHFINDER-21 43759U 18099B   26145.12225123  .00004021  00000+0  22294-3 0  99992 43759  97.4269 194.7299 0009340  30.7530 329.4248 15.14302868409139

JSON: /api/v1/satellites/43759 · /tle

For live sub-satellite position, see the globe view (requires WebGL).

§ Visibility from observer

Set your observer location to see the next 7 days of passes ≥ 10°. The values pass through the URL so the page stays shareable.

No JS? Fill the form by hand. The geolocation button needs JavaScript.